Weather History for Bozeman, MT

Change the Weather History Date:

Friday, February 7, 2014

  Actual Average Record
Temperature  
Mean Temperature -8 °F 26 °F  
Max Temperature 8 °F 38 °F 53 °F (1987)
Min Temperature -25 °F 13 °F -46 °F (1936)
Degree Days  
Heating Degree Days 73    
Month to date heating degree days 486  
Since 1 July heating degree days 5112  
Cooling Degree Days 0    
Month to date cooling degree days 0  
Year to date cooling degree days 0  
Moisture  
Dew Point -14 °F    
Average Humidity 72    
Maximum Humidity 83    
Minimum Humidity 60    
Precipitation  
Precipitation T in 0.01 in 0.50 in (1975)
Month to date precipitation 0.02 0.09  
Year to date precipitation 0.31 0.57  
Snow  
Snow 0.00 in 0.20 in 4.40 in (1994)
Month to date snowfall 0.4 1.1  
Since 1 July snowfall 12.7 18.5  
Snow Depth 4.00 in    
Sea Level Pressure  
Sea Level Pressure 30.00 in    
Wind  
Wind Speed 2 mph (NNE)    
Max Wind Speed 9 mph    
Max Gust Speed 9 mph    
Visibility 7 miles    
Events Snow    
T = Trace of Precipitation, MM = Missing Value Source: NWS Daily Summary

Daily Weather History Graph

Daily Weather History Graph

Search for Another Location

Airport:

Trip Planner

Search our weather history database for the weather conditions in past years. The results will help you decide how hot, cold, wet, or windy it might be!

Date:

Astronomy

Feb. 07, 2014 Rise Set
Actual Time 7:38 AM MST 5:39 PM MST
Civil Twilight 7:07 AM MST 6:10 PM MST
Nautical Twilight 6:32 AM MST 6:46 PM MST
Astronomical Twilight 5:57 AM MST 7:20 PM MST
Moon 11:50 AM MST (2/7) 2:00 AM MST (2/7)
Length of Visible Light 11h 03m
Length of Day
10h 01m
First Quarter, 60% of the Moon is Illuminated
Feb 7
First Quarter
Feb 14
Full
Feb 22
Last Quarter
Mar 1
New
Mar 8
First Quarter

Hourly Weather History & Observations

Time (MST) Temp. Windchill Dew Point Humidity Pressure Visibility Wind Dir Wind Speed Gust Speed Precip Events Conditions
12:56 AM -20.9 °F - -27.9 °F 70% 30.27 in 8.0 mi Calm Calm - N/A   Scattered Clouds
1:56 AM -17.0 °F - -24.0 °F 70% 30.22 in 8.0 mi Calm Calm - N/A   Overcast
2:56 AM -18.9 °F - -26.0 °F 70% 30.17 in 10.0 mi Calm Calm - N/A   Partly Cloudy
3:56 AM -17.0 °F - -24.0 °F 70% 30.16 in 10.0 mi Calm Calm - N/A   Scattered Clouds
4:56 AM -15.0 °F -25.0 °F -22.0 °F 71% 30.13 in 10.0 mi SE 3.5 mph - N/A   Mostly Cloudy
5:56 AM -11.9 °F - -20.0 °F 67% 30.12 in 4.0 mi Calm Calm - 0.00 in Snow Light Snow
6:10 AM -11.9 °F - -20.0 °F 67% 29.75 in 2.5 mi Calm Calm - 0.00 in Snow Light Snow
6:28 AM -13.0 °F -22.7 °F -20.0 °F 71% 29.75 in 1.8 mi NNW 3.5 mph - 0.00 in Snow Light Snow
6:38 AM -11.9 °F -23.8 °F -18.9 °F 71% 29.74 in 1.0 mi NNE 4.6 mph - 0.00 in Snow Light Snow
6:56 AM -11.9 °F -27.3 °F -18.0 °F 74% 30.12 in 1.2 mi ENE 6.9 mph - 0.00 in Snow Light Snow
7:01 AM -11.0 °F -26.2 °F -18.0 °F 71% 29.72 in 2.0 mi ENE 6.9 mph - 0.00 in Snow Light Snow
7:13 AM -11.0 °F -20.4 °F -18.0 °F 71% 29.71 in 4.0 mi NE 3.5 mph - 0.00 in Snow Light Snow
7:23 AM -11.0 °F -20.4 °F -18.0 °F 71% 29.72 in 6.0 mi WNW 3.5 mph - 0.00 in Snow Light Snow
7:56 AM -11.0 °F -24.6 °F -17.0 °F 75% 30.12 in 10.0 mi NNE 5.8 mph - 0.00 in   Mostly Cloudy
8:56 AM -9.0 °F -23.8 °F -16.1 °F 71% 30.13 in 8.0 mi SSW 6.9 mph - N/A   Overcast
9:47 AM -7.1 °F - -14.1 °F 72% 29.73 in 10.0 mi Calm Calm - N/A   Overcast
9:56 AM -6.0 °F - -13.0 °F 72% 30.11 in 5.0 mi Calm Calm - N/A   Haze
9:59 AM -6.0 °F - -13.0 °F 72% 29.74 in 5.0 mi Calm Calm - 0.00 in Snow Light Snow
10:25 AM -5.1 °F - -13.0 °F 69% 29.74 in 2.0 mi Calm Calm - 0.00 in Snow Light Snow
10:36 AM -5.1 °F -15.8 °F -11.9 °F 72% 29.74 in 2.5 mi NNW 4.6 mph - 0.00 in Snow Light Snow
10:43 AM -5.1 °F -20.4 °F -11.9 °F 72% 29.74 in 5.0 mi NNW 8.1 mph - 0.00 in   Haze
10:56 AM -4.0 °F -19.0 °F -11.9 °F 69% 30.11 in 10.0 mi North 8.1 mph - 0.00 in   Overcast
11:56 AM -2.9 °F - -9.9 °F 72% 30.10 in 10.0 mi Calm Calm - 0.00 in   Mostly Cloudy
12:56 PM 1.0 °F -6.7 °F -9.9 °F 60% 30.08 in 10.0 mi NE 3.5 mph - N/A   Mostly Cloudy
1:56 PM 1.0 °F -6.7 °F -9.0 °F 63% 30.07 in 10.0 mi SE 3.5 mph - N/A   Clear
2:56 PM 3.0 °F -6.4 °F -7.1 °F 63% 30.08 in 10.0 mi SE 4.6 mph - N/A   Partly Cloudy
3:56 PM 7.0 °F - -6.0 °F 55% 30.06 in 10.0 mi Calm Calm - N/A   Clear
4:56 PM 1.9 °F - -7.1 °F 66% 30.09 in 10.0 mi Calm Calm - N/A   Scattered Clouds
5:56 PM -2.0 °F -10.1 °F -8.0 °F 76% 30.12 in 10.0 mi North 3.5 mph - N/A   Clear
6:56 PM -0.9 °F - -8.0 °F 72% 30.12 in 10.0 mi Calm Calm - N/A   Clear
7:56 PM -7.1 °F - -11.9 °F 79% 30.13 in 8.0 mi Calm Calm - N/A   Clear
8:56 PM -2.9 °F - -9.9 °F 72% 30.13 in 7.0 mi Calm Calm - N/A   Partly Cloudy
9:56 PM -2.9 °F -11.2 °F -9.9 °F 72% 30.09 in 6.0 mi SW 3.5 mph - N/A   Haze
10:56 PM -0.0 °F - -7.1 °F 72% 30.06 in 7.0 mi Calm Calm - N/A   Overcast
11:56 PM 1.0 °F - -6.0 °F 72% 30.04 in 9.0 mi Calm Calm - N/A   Overcast